1497232801.11,57373,19.38,74158.0,6.43,-23.89,-24.21,0,*7C
1497232802.37,57374,19.44,74156.5,6.43,-23.89,-24.21,0,*7B
1497232803.59,57375,19.38,74156.8,6.45,-23.99,-24.31,0,*7C
1497232804.79,57376,19.44,74158.8,6.45,-23.89,-24.31,0,*7E
1497232806.01,57377,19.44,74162.8,6.43,-24.05,-24.35,0,*7E
1497232807.26,57378,19.44,74158.5,6.43,-23.95,-24.35,0,*7F
1497232808.48,57379,19.38,74158.8,6.41,-23.79,-24.11,0,*78
1497232809.74,57380,19.44,74158.5,6.43,-23.69,-23.95,0,*76
1497232810.99,57381,19.44,74158.8,6.45,-23.53,-23.85,0,*79
1497232812.22,57382,19.44,74160.3,6.45,-23.53,-23.75,0,*75
1497232813.46,57383,19.38,74158.5,6.47,-23.69,-24.05,0,*7F
1497232814.68,57384,19.38,74156.0,6.45,-23.89,-24.15,0,*75
1497232815.9,57385,19.44,74156.3,6.45,-23.99,-24.31,0,*73
1497232817.12,57386,19.38,74158.0,6.45,-24.15,-24.35,0,*77
1497232818.34,57387,19.38,74158.3,6.45,-23.99,-24.31,0,*71
1497232819.56,57388,19.38,74156.0,6.45,-24.15,-24.47,0,*7C
1497232820.79,57389,19.44,74158.8,6.45,-24.05,-24.21,0,*7C
1497232822.04,57390,19.44,74158.3,6.43,-24.11,-24.35,0,*72
1497232823.32,57391,19.44,74156.5,6.43,-24.25,-24.41,0,*77
1497232824.57,57392,19.38,74154.8,6.43,-24.11,-24.51,0,*72
1497232825.83,57393,19.44,74156.3,6.41,-24.21,-24.41,0,*73
1497232827.06,57394,19.44,74156.5,6.41,-24.21,-24.35,0,*77
1497232828.28,57395,19.44,74162.3,6.41,-24.11,-24.35,0,*75
1497232829.56,57396,19.38,74154.0,6.43,-24.11,-24.25,0,*75
1497232830.78,57397,19.38,74154.0,6.41,-24.11,-24.35,0,*77
1497232832.03,57398,19.38,74154.5,6.43,-24.11,-24.35,0,*7A
1497232833.29,57399,19.44,74158.3,6.43,-24.05,-24.25,0,*7F
1497232834.54,57400,19.44,74156.5,6.43,-24.05,-24.25,0,*78
1497232835.77,57401,19.44,74158.5,6.41,-24.21,-24.35,0,*7C
1497232837.02,57402,19.38,74156.3,6.43,-24.11,-24.35,0,*7E
1497232838.27,57403,19.38,74152.8,6.43,-24.21,-24.35,0,*7C
1497232839.52,57404,19.38,74154.5,6.43,-24.11,-24.35,0,*78
1497232840.76,57405,19.38,74154.0,6.43,-24.11,-24.35,0,*79
1497232842.02,57406,19.44,74156.5,6.43,-24.05,-24.25,0,*7E
1497232843.3,57407,19.44,74158.3,6.43,-23.95,-24.25,0,*71
1497232844.55,57408,19.44,74158.5,6.41,-23.95,-24.25,0,*7C
1497232845.77,57409,19.38,74154.5,6.43,-24.05,-24.35,0,*70
1497232847.0,57410,19.44,74158.5,6.41,-24.05,-24.25,0,*7B
1497232848.28,57411,19.44,74158.0,6.43,-23.95,-24.25,0,*76
1497232849.56,57412,19.38,74158.3,6.43,-23.95,-24.25,0,*75
1497232850.81,57413,19.44,74156.5,6.43,-24.05,-24.25,0,*7A
1497232852.06,57414,19.44,74158.0,6.43,-23.89,-24.11,0,*79
1497232853.31,57415,19.38,74156.3,6.43,-23.75,-23.95,0,*70
1497232854.53,57416,19.44,74158.0,6.41,-23.79,-24.11,0,*76
1497232855.76,57417,19.44,74160.0,6.43,-23.75,-24.05,0,*7C
1497232856.99,57418,19.38,74154.3,6.41,-23.75,-24.11,0,*74
1497232858.23,57419,19.44,74156.5,6.43,-23.75,-24.11,0,*77
1497232859.46,57420,19.38,74154.0,6.41,-23.79,-24.11,0,*73
1497232860.7,57421,19.44,74156.5,6.43,-23.69,-23.89,0,*77
1497232861.94,57422,19.38,74156.0,6.43,-23.69,-24.05,0,*77
1497232863.17,57423,19.38,74156.0,6.43,-23.79,-24.05,0,*77
1497232864.39,57424,19.44,74158.8,6.41,-23.75,-23.95,0,*70
1497232865.62,57425,19.44,74158.5,6.41,-23.75,-24.11,0,*7A
1497232866.84,57426,19.44,74158.5,6.41,-23.59,-23.95,0,*7C
1497232868.08,57427,19.38,74154.8,6.43,-23.69,-24.05,0,*72
1497232869.33,57428,19.44,74156.8,6.43,-23.79,-24.11,0,*79
1497232870.55,57429,19.44,74158.0,6.41,-23.69,-24.05,0,*7E
1497232871.76,57430,19.38,74154.3,6.41,-23.69,-23.89,0,*75
1497232873.02,57431,19.38,74158.8,6.43,-23.69,-23.95,0,*7B
1497232874.25,57432,19.44,74156.3,6.43,-23.75,-24.05,0,*7B
1497232875.49,57433,19.38,74158.0,6.43,-23.69,-24.05,0,*77
1497232876.71,57434,19.38,74158.5,6.41,-23.69,-23.89,0,*71
1497232877.94,57435,19.44,74158.3,6.43,-23.75,-24.05,0,*7C
1497232879.17,57436,19.38,74156.5,6.43,-23.79,-24.05,0,*73
1497232880.39,57437,19.44,74158.5,6.41,-23.75,-24.11,0,*79
1497232881.62,57438,19.38,74154.5,6.43,-23.75,-24.05,0,*71
1497232882.86,57439,19.44,74158.0,6.43,-23.69,-24.05,0,*7D
1497232884.11,57440,19.44,74158.3,6.43,-23.69,-24.05,0,*73
1497232885.35,57441,19.44,74156.3,6.41,-23.69,-23.95,0,*7E
1497232886.59,57442,19.44,74158.3,6.43,-23.69,-24.05,0,*71
1497232887.85,57443,19.44,74156.3,6.43,-23.69,-23.95,0,*7E
1497232889.1,57444,19.44,74154.8,6.43,-23.79,-24.11,0,*73
1497232890.34,57445,19.38,74156.8,6.43,-23.79,-24.11,0,*72
1497232891.59,57446,19.44,74156.8,6.43,-23.79,-24.11,0,*71
1497232892.85,57447,19.38,74158.3,6.43,-23.69,-23.95,0,*7A
1497232894.09,57448,19.44,74158.3,6.43,-23.69,-23.89,0,*78
1497232895.34,57449,19.38,74158.0,6.43,-23.75,-23.95,0,*79
1497232896.57,57450,19.44,74156.5,6.43,-23.75,-24.05,0,*7F
1497232897.83,57451,19.38,74154.3,6.43,-23.69,-23.95,0,*7D
1497232899.08,57452,19.44,74156.0,6.43,-23.75,-24.11,0,*78
1497232900.31,57453,19.38,74158.3,6.43,-23.75,-24.05,0,*7C
1497232901.57,57454,19.38,74156.3,6.43,-23.69,-23.95,0,*78
1497232902.79,57455,19.38,74156.0,6.45,-23.69,-23.89,0,*72
1497232904.0,57456,19.38,74156.5,6.45,-23.65,-23.89,0,*7D
1497232905.2,57457,19.38,74158.3,6.45,-23.75,-24.05,0,*7E
1497232906.42,57458,19.38,74158.0,6.45,-23.69,-24.05,0,*7C
1497232907.65,57459,19.38,74154.5,6.45,-23.69,-24.15,0,*7C
1497232908.92,57460,19.44,74156.5,6.47,-23.69,-24.15,0,*74
1497232910.14,57461,19.38,74154.5,6.45,-23.75,-24.15,0,*7A
1497232911.38,57462,19.44,74156.3,6.45,-23.85,-24.15,0,*76
1497232912.62,57463,19.44,74158.8,6.45,-23.85,-24.15,0,*77
1497232913.86,57464,19.44,74158.8,6.45,-23.85,-24.15,0,*70
1497232915.08,57465,19.44,74160.3,6.45,-23.75,-24.15,0,*7E
1497232916.3,57466,19.38,74158.0,6.45,-23.75,-24.15,0,*7D
1497232917.56,57467,19.44,74158.0,6.45,-23.85,-24.21,0,*74
1497232918.83,57468,19.38,74152.3,6.47,-23.85,-24.21,0,*79
1497232920.08,57469,19.38,74156.5,6.45,-23.85,-24.15,0,*7D
1497232921.3,57470,19.38,74158.0,6.45,-23.85,-24.05,0,*74
1497232922.54,57471,19.44,74156.3,6.45,-23.65,-23.99,0,*79
1497232923.75,57472,19.38,74156.5,6.45,-23.69,-24.05,0,*74
1497232924.96,57473,19.44,74160.5,6.45,-23.75,-24.05,0,*78
1497232926.18,57474,19.38,74158.3,6.45,-23.75,-24.15,0,*7E
1497232927.43,57475,19.38,74156.8,6.43,-23.89,-24.21,0,*7D
1497232928.67,57476,19.38,74156.5,6.45,-23.85,-24.15,0,*73
1497232929.95,57477,19.38,74154.0,6.43,-23.95,-24.25,0,*76
1497232931.23,57478,19.44,74160.3,6.43,-23.95,-24.21,0,*7D
1497232932.48,57479,19.38,74156.0,6.43,-23.89,-24.25,0,*75
1497232933.74,57480,19.38,74156.0,6.43,-23.89,-24.25,0,*73
1497232934.99,57481,19.38,74156.5,6.43,-23.89,-24.21,0,*76
1497232936.21,57482,19.38,74156.0,6.45,-23.99,-24.31,0,*73
1497232937.41,57483,19.38,74158.5,6.45,-23.89,-24.31,0,*73
1497232938.69,57484,19.38,74154.8,6.43,-24.11,-24.25,0,*71
1497232939.97,57485,19.38,74154.8,6.43,-24.11,-24.25,0,*70
1497232941.18,57486,19.38,74156.0,6.45,-23.89,-24.15,0,*70
1497232942.42,57487,19.38,74156.3,6.45,-23.85,-24.15,0,*7D
1497232943.65,57488,19.44,74156.0,6.45,-23.89,-24.21,0,*79
1497232944.9,57489,19.38,74156.8,6.43,-24.05,-24.25,0,*79
1497232946.16,57490,19.38,74158.8,6.41,-23.95,-24.25,0,*7D
1497232947.39,57491,19.38,74158.5,6.45,-23.89,-24.21,0,*71
1497232948.63,57492,19.44,74158.3,6.45,-23.85,-24.15,0,*79
1497232949.85,57493,19.38,74156.8,6.45,-23.85,-24.05,0,*79
1497232951.05,57494,19.44,74156.5,6.45,-23.75,-24.05,0,*71
1497232952.25,57495,19.38,74156.8,6.45,-23.75,-24.05,0,*70
1497232953.47,57496,19.38,74156.5,6.45,-23.65,-23.89,0,*71
1497232954.69,57497,19.38,74156.8,6.45,-23.75,-24.15,0,*73
1497232955.91,57498,19.38,74156.5,6.45,-23.65,-23.89,0,*7F
1497232957.15,57499,19.44,74160.5,6.45,-23.69,-23.99,0,*73
1497232958.35,57500,19.38,74156.0,6.45,-23.75,-24.05,0,*7D
1497232959.59,57501,19.38,74156.8,6.47,-23.65,-23.89,0,*7C
1497232960.81,57502,19.38,74156.0,6.45,-23.65,-23.89,0,*7D
1497232962.06,57503,19.38,74154.5,6.45,-23.53,-23.85,0,*75
1497232963.3,57504,19.44,74158.3,6.45,-23.65,-23.99,0,*7A
1497232964.51,57505,19.38,74158.0,6.45,-23.75,-24.05,0,*78
1497232965.77,57506,19.38,74158.0,6.47,-23.69,-23.99,0,*76
1497232967.03,57507,19.38,74156.8,6.47,-23.69,-23.99,0,*77
1497232968.31,57508,19.38,74156.8,6.47,-23.53,-23.85,0,*7C
1497232969.58,57509,19.38,74154.0,6.47,-23.69,-23.99,0,*79
1497232970.83,57510,19.44,74160.0,6.47,-23.85,-24.05,0,*71
1497232972.07,57511,19.38,74154.5,6.47,-23.75,-24.15,0,*7E
1497232973.31,57512,19.38,74156.8,6.45,-23.85,-24.15,0,*70
1497232974.58,57513,19.38,74158.8,6.47,-23.69,-23.99,0,*72
1497232975.85,57514,19.38,74158.5,6.47,-23.65,-23.99,0,*79
1497232977.09,57515,19.38,74156.5,6.47,-23.65,-23.89,0,*79
1497232978.36,57516,19.38,74158.3,6.47,-23.69,-23.99,0,*77
1497232979.63,57517,19.44,74160.0,6.47,-23.33,-23.65,0,*7A
1497232980.87,57518,19.38,74156.3,6.45,-23.49,-23.69,0,*76
1497232982.11,57519,19.38,74154.5,6.47,-23.65,-23.89,0,*75
1497232983.39,57520,19.38,74158.3,6.47,-23.85,-23.99,0,*70
1497232984.64,57521,19.38,74158.5,6.47,-23.75,-23.99,0,*7E
1497232985.88,57522,19.38,74156.8,6.47,-23.89,-24.15,0,*7D
1497232987.16,57523,19.38,74158.0,6.47,-23.99,-24.21,0,*7A
1497232988.43,57524,19.38,74158.8,6.47,-23.85,-24.15,0,*77
1497232989.67,57525,19.38,74158.5,6.47,-23.89,-24.15,0,*7A
1497232990.9,57526,19.38,74156.0,6.47,-23.75,-24.05,0,*7B
1497232992.13,57527,19.38,74154.0,6.47,-23.75,-24.05,0,*7A
1497232993.37,57528,19.44,74160.8,6.47,-23.85,-24.05,0,*7A
1497232994.62,57529,19.38,74156.3,6.47,-23.69,-24.05,0,*79
1497232995.88,57530,19.38,74160.3,6.47,-23.85,-24.15,0,*72
1497232997.14,57531,19.38,74158.8,6.47,-23.75,-23.99,0,*7F
1497232998.36,57532,19.38,74158.8,6.45,-23.85,-24.05,0,*73
1497232999.6,57533,19.38,74158.3,6.47,-23.65,-23.89,0,*7D
1497233000.87,57534,19.38,74158.5,6.47,-23.65,-23.99,0,*7B
1497233002.12,57535,19.38,74158.3,6.47,-23.75,-24.15,0,*78
1497233003.38,57536,19.38,74160.5,6.47,-23.69,-23.99,0,*75
1497233004.62,57537,19.38,74156.8,6.47,-23.69,-24.05,0,*76
1497233005.89,57538,19.38,74160.0,6.47,-23.65,-23.99,0,*77
1497233007.14,57539,19.38,74156.8,6.47,-23.69,-24.05,0,*78
1497233008.38,57540,19.38,74156.8,6.47,-23.65,-23.89,0,*79
1497233009.66,57541,19.38,74160.8,6.47,-23.65,-23.85,0,*74
1497233010.86,57542,19.38,74156.0,6.49,-23.59,-23.79,0,*75
1497233012.09,57543,19.38,74160.3,6.49,-23.59,-23.85,0,*77
1497233013.34,57544,19.38,74160.3,6.51,-23.53,-23.89,0,*7F
1497233014.58,57545,19.38,74160.5,6.51,-23.59,-23.95,0,*79
1497233015.81,57546,19.38,74158.5,6.49,-23.59,-23.85,0,*72
1497233017.04,57547,19.38,74158.8,6.49,-23.49,-23.79,0,*71
1497233018.28,57548,19.38,74160.8,6.49,-23.65,-23.95,0,*72
1497233019.52,57549,19.38,74158.5,6.49,-23.69,-24.11,0,*74
1497233020.76,57550,19.38,74156.8,6.49,-23.69,-23.99,0,*7B
1497233022.0,57551,19.38,74156.0,6.49,-23.69,-23.99,0,*7A
1497233023.23,57552,19.38,74156.3,6.49,-23.59,-23.85,0,*77
1497233024.49,57553,19.38,74158.3,6.51,-23.53,-23.75,0,*7A
1497233025.69,57554,19.38,74160.5,6.49,-23.59,-23.79,0,*72
1497233026.92,57555,19.38,74158.8,6.51,-23.43,-23.75,0,*7D
1497233028.17,57556,19.38,74160.8,6.51,-23.53,-23.79,0,*73
1497233029.42,57557,19.38,74156.8,6.51,-23.65,-23.89,0,*78
1497233030.65,57558,19.38,74158.8,6.51,-23.75,-24.05,0,*75
1497233031.89,57559,19.38,74160.8,6.49,-23.69,-23.99,0,*72
1497233033.14,57560,19.38,74162.0,6.51,-23.65,-23.89,0,*7C
1497233034.38,57561,19.38,74158.5,6.49,-23.69,-23.99,0,*79
1497233035.63,57562,19.38,74162.3,6.51,-23.59,-23.95,0,*7C
1497233036.9,57563,19.38,74162.8,6.51,-23.65,-23.95,0,*72
1497233038.17,57564,19.38,74156.5,6.51,-23.65,-23.95,0,*75
1497233039.39,57565,19.38,74158.0,6.51,-23.59,-23.89,0,*76
1497233040.64,57566,19.38,74158.5,6.51,-23.53,-23.89,0,*7F
1497233041.9,57567,19.38,74158.8,6.51,-23.53,-23.79,0,*71
1497233043.12,57568,19.38,74160.3,6.53,-23.59,-23.89,0,*79
1497233044.37,57569,19.38,74164.3,6.53,-23.59,-23.95,0,*75
1497233045.64,57570,19.38,74156.8,6.51,-23.65,-23.95,0,*70
1497233046.88,57571,19.38,74158.0,6.51,-23.59,-23.95,0,*7E
1497233048.13,57572,19.38,74156.3,6.51,-23.59,-23.95,0,*7D
1497233049.36,57573,19.38,74160.0,6.51,-23.59,-23.79,0,*7E
1497233050.61,57574,19.38,74160.3,6.51,-23.53,-23.79,0,*73
1497233051.84,57575,19.38,74162.3,6.51,-23.59,-23.89,0,*77
1497233053.06,57576,19.38,74158.5,6.51,-23.59,-23.89,0,*74
1497233054.34,57577,19.38,74160.0,6.51,-23.53,-23.95,0,*72
1497233055.6,57578,19.38,74160.3,6.53,-23.65,-23.95,0,*7A
1497233056.85,57579,19.38,74160.3,6.53,-23.65,-24.05,0,*75
1497233058.1,57580,19.38,74160.5,6.53,-23.65,-24.05,0,*73
1497233059.36,57581,19.38,74164.3,6.57,-23.69,-24.11,0,*7F
1497233060.61,57582,19.38,74162.3,6.53,-23.65,-23.89,0,*72
1497233061.84,57583,19.38,74162.3,6.51,-23.75,-24.05,0,*73
1497233063.11,57584,19.38,74166.0,6.53,-23.65,-23.95,0,*79
1497233064.36,57585,19.38,74164.8,6.53,-23.65,-24.05,0,*76
1497233065.61,57586,19.38,74162.3,6.53,-23.65,-24.05,0,*75
1497233066.85,57587,19.38,74162.5,6.53,-23.53,-23.89,0,*72
1497233068.08,57588,19.38,74160.8,6.53,-23.59,-23.89,0,*77
1497233069.3,57589,19.38,74164.5,6.53,-23.79,-24.05,0,*77
1497233070.57,57590,19.38,74164.3,6.57,-23.85,-24.11,0,*7D
1497233071.82,57591,19.38,74162.8,6.53,-23.89,-24.11,0,*74
1497233073.06,57592,19.38,74162.3,6.53,-23.59,-23.95,0,*71
1497233074.34,57593,19.38,74164.5,6.57,-23.49,-23.85,0,*74
1497233075.59,57594,19.38,74162.8,6.53,-23.89,-24.11,0,*71
1497233076.83,57595,19.38,74164.8,6.53,-23.79,-24.11,0,*7F
1497233078.08,57596,19.38,74160.0,6.53,-23.53,-23.89,0,*72
1497233079.33,57597,19.38,74164.0,6.57,-23.49,-23.75,0,*7F
1497233080.58,57598,19.38,74160.8,6.53,-23.59,-23.95,0,*7B
1497233081.8,57599,19.38,74162.0,6.53,-23.59,-24.05,0,*74
1497233083.05,57600,19.38,74160.5,6.53,-23.89,-24.25,0,*78
1497233084.28,57601,19.38,74160.3,6.57,-24.05,-24.35,0,*7F
1497233085.51,57602,19.38,74162.3,6.57,-24.05,-24.47,0,*79
1497233086.77,57603,19.38,74160.0,6.53,-24.21,-24.51,0,*7D
1497233087.99,57604,19.38,74160.5,6.53,-24.35,-24.57,0,*79
1497233089.25,57605,19.38,74160.5,6.53,-24.25,-24.57,0,*79
1497233090.5,57606,19.38,74162.5,6.53,-24.25,-24.57,0,*7A
1497233091.76,57607,19.38,74160.5,6.53,-24.05,-24.25,0,*7C
1497233093.04,57608,19.38,74162.8,6.53,-24.21,-24.41,0,*77
1497233094.28,57609,19.38,74162.8,6.53,-24.11,-24.35,0,*76
1497233095.53,57610,19.38,74162.8,6.53,-24.11,-24.35,0,*7E
1497233096.79,57611,19.38,74162.0,6.53,-23.79,-24.21,0,*73
1497233098.03,57612,19.38,74162.5,6.53,-23.79,-24.11,0,*73
1497233099.31,57613,19.38,74162.8,6.57,-23.99,-24.25,0,*7F
1497233100.56,57614,19.38,74162.3,6.53,-24.11,-24.35,0,*7A
1497233101.84,57615,19.38,74160.5,6.53,-24.11,-24.41,0,*78
1497233103.09,57616,19.38,74166.0,6.51,-24.11,-24.35,0,*7A
1497233104.37,57617,19.38,74162.8,6.51,-23.95,-24.25,0,*71
1497233105.62,57618,19.38,74160.0,6.51,-24.05,-24.25,0,*70
1497233106.85,57619,19.38,74162.8,6.51,-24.05,-24.35,0,*70
1497233108.1,57620,19.38,74162.3,6.51,-23.95,-24.35,0,*74
1497233109.38,57621,19.38,74162.0,6.51,-23.95,-24.25,0,*74
1497233110.62,57622,19.38,74162.0,6.49,-23.85,-24.15,0,*7C
1497233111.9,57623,19.38,74158.5,6.53,-23.95,-24.21,0,*70
1497233113.18,57624,19.38,74162.3,6.51,-24.11,-24.41,0,*78
1497233114.41,57625,19.38,74162.0,6.51,-24.05,-24.35,0,*7F
1497233115.69,57626,19.38,74162.8,6.51,-24.21,-24.41,0,*79
1497233116.94,57627,19.38,74160.0,6.51,-23.89,-24.11,0,*78
1497233118.18,57628,19.38,74162.0,6.51,-23.79,-24.11,0,*78
1497233119.47,57629,19.38,74156.8,6.51,-23.95,-24.21,0,*78
1497233120.75,57630,19.38,74162.5,6.51,-24.11,-24.41,0,*7D
1497233122.03,57631,19.38,74160.3,6.51,-23.95,-24.25,0,*75
1497233123.26,57632,19.38,74160.5,6.51,-23.75,-24.05,0,*7A
1497233124.48,57633,19.38,74158.8,6.49,-23.65,-24.05,0,*73
1497233125.71,57634,19.38,74160.5,6.51,-23.79,-24.05,0,*70
1497233126.96,57635,19.38,74162.8,6.51,-23.89,-24.11,0,*7B
1497233128.21,57636,19.38,74160.3,6.53,-24.05,-24.25,0,*7E
1497233129.46,57637,19.38,74160.0,6.53,-23.75,-24.11,0,*78
1497233130.69,57638,19.38,74160.0,6.51,-23.79,-24.05,0,*7C
1497233131.94,57639,19.38,74162.3,6.51,-23.75,-23.95,0,*7F
1497233133.19,57640,19.38,74160.5,6.51,-23.75,-23.95,0,*71
1497233134.42,57641,19.38,74156.0,6.51,-23.75,-24.05,0,*7E
1497233135.65,57642,19.38,74158.0,6.51,-23.79,-24.05,0,*71
1497233136.92,57643,19.38,74158.3,6.51,-23.65,-23.95,0,*73
1497233138.18,57644,19.38,74158.5,6.51,-23.53,-23.75,0,*7F
1497233139.4,57645,19.38,74160.3,6.53,-23.39,-23.43,0,*75
1497233140.66,57646,19.38,74160.5,6.53,-23.23,-23.43,0,*7D
1497233141.88,57647,19.38,74160.3,6.53,-23.39,-23.43,0,*77
1497233143.15,57648,19.38,74162.3,6.57,-23.23,-23.53,0,*76
1497233144.44,57649,19.38,74158.8,6.57,-23.53,-23.85,0,*7B
1497233145.69,57650,19.38,74156.8,6.57,-23.49,-23.75,0,*77
1497233146.94,57651,19.38,74158.5,6.53,-23.53,-23.79,0,*75
1497233148.21,57652,19.38,74160.5,6.57,-23.49,-23.53,0,*71
1497233149.49,57653,19.38,74162.3,6.57,-23.33,-23.53,0,*7D
1497233150.73,57654,19.38,74162.0,6.53,-23.39,-23.49,0,*7F
1497233151.98,57655,19.38,74160.3,6.57,-23.53,-23.89,0,*7A
1497233153.23,57656,19.38,74160.0,6.57,-23.69,-23.89,0,*70
1497233154.45,57657,19.38,74160.0,6.59,-23.43,-23.69,0,*79
1497233155.7,57658,19.38,74160.0,6.59,-23.65,-23.95,0,*71
1497233156.95,57659,19.38,74164.3,6.59,-23.53,-23.95,0,*75
1497233158.21,57660,19.38,74162.5,6.59,-23.49,-23.85,0,*75
1497233159.47,57661,19.38,74166.5,6.59,-23.53,-23.85,0,*7F
1497233160.73,57662,19.38,74164.8,6.59,-23.65,-23.85,0,*79
1497233161.95,57663,19.38,74166.5,6.59,-23.43,-23.69,0,*7E
1497233163.2,57664,19.38,74164.3,6.59,-23.49,-23.69,0,*73
1497233164.48,57665,19.38,74160.0,6.61,-23.49,-23.85,0,*7B
1497233165.73,57666,19.38,74166.0,6.59,-23.65,-23.95,0,*7C
1497233166.98,57667,19.38,74160.0,6.59,-23.65,-23.95,0,*7D
1497233168.23,57668,19.38,74162.0,6.59,-23.53,-23.95,0,*77
1497233169.47,57669,19.38,74164.0,6.59,-23.69,-23.99,0,*73
1497233170.75,57670,19.38,74162.8,6.61,-23.85,-23.99,0,*72
1497233172.0,57671,19.38,74160.8,6.59,-23.65,-23.99,0,*76
1497233173.26,57672,19.38,74164.8,6.59,-23.53,-23.85,0,*7D
1497233174.5,57673,19.38,74164.8,6.59,-23.65,-23.95,0,*78
1497233175.76,57674,19.38,74166.5,6.59,-23.53,-23.95,0,*7A
1497233177.01,57675,19.38,74164.0,6.59,-23.53,-23.85,0,*7A
1497233178.24,57676,19.38,74164.0,6.59,-23.79,-23.99,0,*7C
1497233179.49,57677,19.38,74164.3,6.59,-23.69,-23.99,0,*7C
1497233180.73,57678,19.38,74162.0,6.59,-23.65,-23.95,0,*73
1497233181.98,57679,19.38,74162.8,6.59,-23.69,-23.95,0,*7E
1497233183.23,57680,19.38,74162.8,6.59,-23.95,-24.15,0,*74
1497233184.5,57681,19.38,74164.3,6.61,-23.95,-24.15,0,*7E
1497233185.75,57682,19.38,74164.0,6.59,-23.85,-24.15,0,*77
1497233186.99,57683,19.38,74164.8,6.59,-23.95,-24.15,0,*77
1497233188.22,57684,19.38,74160.5,6.59,-23.79,-24.11,0,*76
1497233189.45,57685,19.38,74166.5,6.59,-23.79,-23.99,0,*70
1497233190.67,57686,19.38,74162.5,6.59,-23.79,-24.11,0,*74
1497233191.9,57687,19.38,74160.3,6.57,-23.89,-24.05,0,*71
1497233193.16,57688,19.38,74162.0,6.57,-23.99,-24.05,0,*7F
1497233194.43,57689,19.38,74166.5,6.53,-23.95,-24.21,0,*70
1497233195.69,57690,19.38,74160.8,6.57,-23.85,-24.05,0,*7B
1497233196.94,57691,19.38,74158.3,6.57,-23.85,-24.05,0,*7A
1497233198.16,57692,19.38,74160.8,6.59,-23.79,-24.11,0,*71
1497233199.39,57693,19.38,74160.8,6.59,-23.79,-24.11,0,*70
1497233200.64,57694,19.38,74160.8,6.57,-23.89,-24.15,0,*72
1497233201.88,57695,19.38,74160.3,6.57,-23.89,-24.15,0,*73
1497233203.16,57696,19.38,74162.5,6.53,-23.95,-24.25,0,*7A
1497233204.42,57697,19.38,74162.8,6.57,-23.89,-24.21,0,*76
1497233205.67,57698,19.38,74160.8,6.53,-24.05,-24.25,0,*7A
1497233206.9,57699,19.38,74164.3,6.53,-24.05,-24.35,0,*7A
1497233208.14,57700,19.38,74160.8,6.53,-23.75,-24.11,0,*7D
1497233209.39,57701,19.38,74160.5,6.53,-23.75,-23.95,0,*77
1497233210.64,57702,19.38,74160.3,6.53,-23.65,-24.05,0,*7B
1497233211.91,57703,19.38,74160.8,6.57,-23.69,-23.99,0,*70
1497233213.19,57704,19.38,74162.3,6.57,-23.85,-24.21,0,*71
1497233214.47,57705,19.38,74162.3,6.53,-23.95,-24.21,0,*75
1497233215.69,57706,19.38,74162.0,6.53,-24.05,-24.35,0,*7D
1497233216.95,57707,19.38,74160.5,6.53,-24.05,-24.25,0,*7D
1497233218.17,57708,19.38,74164.0,6.53,-24.05,-24.35,0,*73
1497233219.4,57709,19.38,74160.8,6.53,-24.05,-24.35,0,*72
1497233220.62,57710,19.38,74162.8,6.53,-24.05,-24.35,0,*7A
1497233221.85,57711,19.38,74160.5,6.57,-23.75,-24.05,0,*7C
1497233223.11,57712,19.38,74160.8,6.53,-23.89,-24.21,0,*7E
1497233224.36,57713,19.38,74162.5,6.53,-23.89,-24.21,0,*7F
1497233225.6,57714,19.38,74164.0,6.53,-23.89,-24.11,0,*7B
1497233226.88,57715,19.38,74164.0,6.53,-23.95,-24.25,0,*70
1497233228.12,57716,19.38,74160.8,6.53,-23.89,-24.11,0,*79
1497233229.38,57717,19.38,74162.3,6.53,-23.89,-24.21,0,*7B
1497233230.61,57718,19.38,74160.3,6.53,-23.75,-24.05,0,*71
1497233231.83,57719,19.38,74160.0,6.53,-23.79,-24.05,0,*7C
1497233233.06,57720,19.38,74160.0,6.53,-23.75,-24.05,0,*7A
1497233234.29,57721,19.38,74158.3,6.53,-23.79,-24.05,0,*77
1497233235.54,57722,19.38,74162.5,6.57,-23.75,-23.99,0,*7E
1497233236.77,57723,19.38,74158.3,6.53,-23.79,-24.05,0,*75
1497233238.0,57724,19.38,74164.0,6.53,-23.75,-24.05,0,*7E
1497233239.23,57725,19.38,74162.0,6.53,-23.75,-24.05,0,*7F
1497233240.47,57726,19.38,74158.5,6.57,-23.69,-24.05,0,*75
1497233241.7,57727,19.38,74160.3,6.53,-23.79,-24.05,0,*71
1497233242.95,57728,19.38,74162.5,6.53,-24.05,-24.21,0,*74
1497233244.23,57729,19.38,74164.0,6.53,-23.95,-24.25,0,*7F
1497233245.51,57730,19.38,74164.3,6.53,-23.95,-24.25,0,*77
1497233246.76,57731,19.38,74160.3,6.53,-24.05,-24.25,0,*78
1497233248.02,57732,19.38,74162.0,6.53,-24.05,-24.25,0,*7B
1497233249.26,57733,19.38,74166.0,6.53,-23.89,-24.11,0,*7E
1497233250.53,57734,19.38,74160.0,6.57,-23.99,-24.15,0,*78
1497233251.76,57735,19.38,74162.0,6.57,-23.89,-24.05,0,*79
1497233252.98,57736,19.38,74162.8,6.53,-23.89,-24.05,0,*7E
1497233254.23,57737,19.38,74162.5,6.53,-23.89,-24.11,0,*7A
1497233255.47,57738,19.38,74160.0,6.53,-23.89,-24.11,0,*75
1497233256.72,57739,19.38,74162.0,6.53,-23.79,-24.11,0,*7B
1497233257.97,57740,19.38,74160.3,6.53,-23.89,-24.21,0,*79
1497233259.21,57741,19.38,74160.3,6.53,-23.79,-24.11,0,*74
1497233260.47,57742,19.31,74160.5,6.53,-23.89,-24.21,0,*7B
1497233261.74,57743,19.38,74162.0,6.57,-23.85,-24.15,0,*75
1497233262.99,57744,19.38,74162.0,6.53,-24.11,-24.35,0,*7E
1497233264.26,57745,19.38,74164.8,6.53,-24.11,-24.41,0,*7C
1497233265.54,57746,19.38,74162.0,6.53,-24.11,-24.25,0,*7D
1497233266.79,57747,19.38,74160.3,6.53,-24.11,-24.35,0,*7D
1497233268.06,57748,19.38,74162.5,6.53,-24.11,-24.41,0,*71
1497233269.31,57749,19.38,74162.3,6.53,-24.11,-24.35,0,*73
1497233270.56,57750,19.38,74162.0,6.51,-24.11,-24.51,0,*7B
1497233271.81,57751,19.38,74158.8,6.51,-24.11,-24.35,0,*78
1497233273.09,57752,19.38,74162.5,6.51,-23.95,-24.21,0,*75
1497233274.35,57753,19.38,74162.5,6.51,-23.89,-24.21,0,*79
1497233275.61,57754,19.38,74160.0,6.51,-24.11,-24.51,0,*7F
1497233276.89,57755,19.38,74162.5,6.51,-24.21,-24.41,0,*7C
1497233278.17,57756,19.38,74160.5,6.51,-24.11,-24.41,0,*7C
1497233279.41,57757,19.38,74162.8,6.51,-23.89,-24.11,0,*7E
1497233280.7,57758,19.38,74162.5,6.51,-23.95,-24.21,0,*7F
1497233281.97,57759,19.38,74160.8,6.51,-23.95,-24.25,0,*7A
1497233283.21,57760,19.38,74160.3,6.51,-23.75,-24.05,0,*7C
1497233284.44,57761,19.38,74160.3,6.51,-23.75,-24.05,0,*7D
1497233285.72,57762,19.38,74164.8,6.51,-23.95,-24.25,0,*72
1497233286.99,57763,19.38,74162.5,6.53,-23.95,-24.11,0,*76
1497233288.24,57764,19.38,74164.3,6.51,-23.79,-24.11,0,*71
1497233289.49,57765,19.38,74162.0,6.51,-23.89,-24.21,0,*7C
1497233290.78,57766,19.38,74162.0,6.51,-23.95,-24.21,0,*72
1497233292.04,57767,19.38,74160.3,6.51,-23.89,-24.21,0,*7E
1497233293.29,57768,19.31,74158.5,6.51,-24.21,-24.35,0,*71
1497233294.55,57769,19.31,74158.8,6.51,-24.05,-24.25,0,*77
1497233295.8,57770,19.38,74162.0,6.49,-24.11,-24.25,0,*73
1497233297.06,57771,19.38,74160.3,6.51,-24.05,-24.21,0,*7A
1497233298.34,57772,19.38,74160.8,6.51,-24.21,-24.41,0,*79
1497233299.59,57773,19.38,74160.8,6.51,-24.11,-24.35,0,*78
1497233300.85,57774,19.38,74162.5,6.51,-24.05,-24.25,0,*7B
1497233302.11,57775,19.38,74160.3,6.51,-24.05,-24.25,0,*7A
1497233303.39,57776,19.38,74162.8,6.51,-23.95,-24.21,0,*73
1497233304.67,57777,19.38,74162.0,6.51,-23.95,-24.21,0,*72
1497233305.92,57778,19.38,74160.5,6.49,-23.95,-24.25,0,*70
1497233307.17,57779,19.38,74162.8,6.51,-23.89,-24.11,0,*72